Showing default

PREFIRE-1, 59965

Orbit data source: Space-Track

PREFIRE-1, 59965 is a payload satellite owned by JPL (US) in SSO that was launched on Wed, 05 Jun 2024 UTC via an ELECTRON launch vehicle from the Rocket Lab Launch Complex (RLLC). Payload-class satellites include a variety of spacecraft equipped with specific instruments for various scientific and technological missions. These include communications satellites like Starlink; space stations such as the ISS; scientific satellites like the Hubble; Earth observation satellites from companies like Planet Labs, Umbra, and HawkEye 360; GPS; miniature CubeSats for education and research; and military/defense satellites.

Loading next visibility...
Identifier
59965, 2024-108A
Orbit
SSO
Country
Flag of USUS
Related business
Manufacturer
JPL
Mission
Operational Civil Earth Obs Sci
Bus & Motor
CUBESAT 6U, Unknown motor
Mass
~10 kg wet, ~10 kg dry
Launch date (UTC)
2024-06-05 (2 years ago)
Launch vehicle
ELECTRON
Launch site
Rocket Lab Launch Complex (RLLC)
Object type
Payload
Rocket body
Debris
Shape & HBR
Box + 2 Pan, 6.3 m
Radar Cross Section
0.789 m², Medium (>0.1 m² and < 1m²)

Expand to show TLE details & history
Last TLE update: 2 days ago

TLE from 2 days ago
0 PREFIRE-1
1 59965U 24108A   26171.41751821  .00003743  00000-0  15902-3 0  9992
2 59965  97.5323 326.2364 0010367 223.4198 136.6223 15.23648011113084
Epoch: 2026-06-20T10:01Z
TLE epoch observation values (Epoch: 2026-06-20T10:01:13.573Z)
Latitude
-0.00002°
Longitude
-92.70259°
Altitude
503.123 km
Speed
7.61 km/s
True Right ascension
21h 44m 56s
True Declination
0° 00' 00"
Sunlit
Object was in full shadow at epoch
Visualization orbit readout
Latitude
Unknown
Longitude
Unknown
Altitude
Unknown
Speed
Unknown
Apparent Right ascension
Unknown
Apparent Declination
Unknown
Sunlit
N/A
Visualization observer readout
Local Sidereal Time
21:38:49
Azimuth
Unknown
Elevation
Unknown
Doppler factor
Unknown
Orbital elements
Apogee altitude
498.937 km
Perigee altitude
484.693 km
Semi-major axis
6,869.952 km
Eccentricity
0.00104
Inclination
97.5323°
RAAN
326.2364°
Arg. of periapsis
223.4198°
True anomaly
136.70381°
Mean anomaly
136.6223°
Eccentric anomaly
136.66306°
Mean motion
3.81165 °/min
Orbital period
94.45 mins
BSTAR
0.00015902
Loading maneuver chart data...
Computing Atmospheric mass density...
Loading historical data...
Loading historical data...
Loading historical data...
Loading historical data...
Loading historical data...
Loading historical data...
Loading historical data...
Other satellites on launch #108 in the year 2024 (2024-06-05 UTC)

Documentation

Showing up to 5 results
|